User: anonymous
Location: NJAA Observatory
(40.6819°N, 74.8979°W)
Time: 22:13:26
(UTC-04:00)
Language:

Cosmos 2237 Rocket - Orbit

View from above orbital plane
View from above orbital plane
View from above satellite
View from above satellite

Ground track
Ground track

The orbit data is extracted from the following two-line orbital elements,

1 22566U 93016B   14242.14359448  .00000109  00000-0  81222-4 0  1330
2 22566 071.0093 052.1062 0012466 254.0838 105.8911 14.14854839106704
Epoch (UTC): 30 August 2014 03:26:46
Eccentricity: 0.0012466
inclination: 71.0093°
perigee height: 834 km
apogee height: 852 km
right ascension of ascending node: 52.1062°
argument of perigee: 254.0838°
revolutions per day: 14.14854839
mean anomaly at epoch: 105.8911°
orbit number at epoch: 10670

The dashed part of the orbit path shows where the satellite is in the earth's shadow,  

DLR